Regional Weather Roundup
Issued by NWS

Home | Current Version | Previous Version | Text Only | Print | Product List | Glossary Off
Versions: 1 2 3 4 5 6 7 8 9 10 11 12 13 14 15 16 17 18 19 20 21 22 23 24 25 26 27 28 29 30 31 32 33 34 35 36 37 38 39 40 41 42 43 44 45 46 47 48 49 50

000
ASUS43 KLMK 292210
RWRKY
KENTUCKY REGIONAL WEATHER ROUNDUP
NATIONAL WEATHER SERVICE LOUISVILLE KY
600 PM EDT SUN MAR 29 2015

NOTE "FAIR" INDICATES FEW OR NO CLOUDS BELOW 12,000 FEET
WITH NO SIGNIFICANT WEATHER AND/OR OBSTRUCTIONS TO VISIBILITY.

KYZ001>023-026-027-061>063-070>075-292300-
WESTERN AND SOUTH CENTRAL KENTUCKY

CITY           SKY/WX    TMP DP  RH WIND       PRES   REMARKS
PADUCAH        MOSUNNY   60  40  47 SW15G28   29.98F
HENDERSON      CLOUDY    61  34  36 S20       29.97F
OWENSBORO      MOSUNNY   62  34  35 S18       29.98F
HOPKINSVILLE   PTSUNNY   62  37  38 S21       30.02F HAZE
BOWLING GREEN  MOSUNNY   62  27  26 S18G28    30.04F
GLASGOW        SUNNY     60  25  26 S15G23    30.05F
$$

KYZ024-025-028>034-038-045-046-053-292300-
NORTH CENTRAL KENTUCKY

CITY           SKY/WX    TMP DP  RH WIND       PRES   REMARKS
LOUISVILLE/SDF CLOUDY    58  16  19 S18       29.98F
LOUISVILLE/LOU CLOUDY    58  17  20 S15G22    29.98F
FORT KNOX      CLOUDY    58  22  24 S20       29.97F
$$

KYZ035>037-039>044-047>052-055>060-089>105-292300-
NORTHEAST KENTUCKY

CITY           SKY/WX    TMP DP  RH WIND       PRES   REMARKS
LEXINGTON      CLOUDY    56  13  18 S20G26    30.03F
COVINGTON      CLOUDY    50  17  27 S14       29.97F
FRANKFORT      CLOUDY    55  12  18 S16       30.01F
$$

KYZ054-064>069-076>088-106>120-292300-
SOUTHEAST KENTUCKY

CITY           SKY/WX    TMP DP  RH WIND       PRES   REMARKS
JACKSON        PTSUNNY   55   4  12 VRB6      30.09F
LONDON         SUNNY     58   7  13 S13       30.09F
SOMERSET       PTSUNNY   59  12  15 SW10      30.08F
MIDDLESBORO    SUNNY     56  14  18 S7        30.14F
MONTICELLO     CLEAR     62  16  17 S9G20     30.11F
$$




USA.gov is the U.S. government's official web portal to all federal, state and local government web resources and services.